VIR44 KMCO-EGCC

Flight info

Callsign VIR44
Flight time N/A
Altitude 35000
Route MZULO3 ETECK M202 UKOKA/M086F350 M202 KINER DCT DRYED M201 CARAC/N0495F350 DCT JOOPY/M086F350 DCT 49N050W 51N040W 52N030W 53N020W DCT MALOT DCT GISTI/N0489F350 DCT BOFUM Q37 MALUD
Aircraft B744/H-SDE3FGHIM1M2RWXY/LB1

Departure

Time 2026-04-21 11:04
Airport Orlando International Airport (KMCO)

Arrival

Time N/A
Airport Manchester Airport (EGCC)
Time Latitude Longitude Altitude Speed Heading
2026-04-21 10:58 28.41195 -81.29563 108 ft 0 kts 359°
2026-04-21 11:03 28.41279 -81.29564 108 ft 38 kts 360°
2026-04-21 11:03 28.41831 -81.29568 108 ft 120 kts 359°
2026-04-21 11:03 28.42899 -81.29579 203 ft 180 kts 359°
2026-04-21 11:04 28.44189 -81.29589 1188 ft 185 kts
2026-04-21 11:04 28.45466 -81.29267 2006 ft 193 kts 34°
2026-04-21 11:04 28.46422 -81.28140 2377 ft 209 kts 56°
2026-04-21 11:04 28.47239 -81.26675 2682 ft 226 kts 61°
2026-04-21 11:05 28.47893 -81.25057 3312 ft 226 kts 67°
2026-04-21 11:05 28.48501 -81.23402 3868 ft 228 kts 66°
2026-04-21 11:05 28.49157 -81.21748 4457 ft 231 kts 64°
2026-04-21 11:05 28.49856 -81.20041 4916 ft 241 kts 64°
2026-04-21 11:06 28.50561 -81.18304 5508 ft 246 kts 64°
2026-04-21 11:06 28.51097 -81.16424 6155 ft 258 kts 82°
2026-04-21 11:06 28.51116 -81.14370 7020 ft 270 kts 89°
2026-04-21 11:06 28.51033 -81.12208 7931 ft 277 kts 91°
2026-04-21 11:07 28.50933 -81.09984 8811 ft 286 kts 90°
2026-04-21 11:07 28.50848 -81.07700 9709 ft 294 kts 90°
2026-04-21 11:07 28.50766 -81.05335 10532 ft 304 kts 90°
2026-04-21 11:07 28.50578 -81.02832 10869 ft 332 kts 98°
2026-04-21 11:08 28.50179 -81.00137 11163 ft 360 kts 97°
2026-04-21 11:08 28.49777 -80.97225 11440 ft 387 kts 97°
2026-04-21 11:08 28.49336 -80.94100 11660 ft 413 kts 98°
2026-04-21 11:08 28.48869 -80.90904 12516 ft 417 kts 98°
2026-04-21 11:09 28.48392 -80.87629 13342 ft 423 kts 97°
2026-04-21 11:09 28.47921 -80.84304 14182 ft 429 kts 96°
2026-04-21 11:09 28.47822 -80.81162 14825 ft 431 kts 82°
2026-04-21 11:09 28.48174 -80.77763 15494 ft 436 kts 80°
2026-04-21 11:10 28.48579 -80.74325 16158 ft 442 kts 80°
2026-04-21 11:10 28.48986 -80.70839 16811 ft 448 kts 80°
2026-04-21 11:10 28.49369 -80.67307 17418 ft 454 kts 81°
2026-04-21 11:10 28.49755 -80.63727 18058 ft 459 kts 81°
2026-04-21 11:11 28.50159 -80.60102 18649 ft 465 kts 80°
2026-04-21 11:11 28.50571 -80.56436 19194 ft 470 kts 81°
2026-04-21 11:11 28.50978 -80.52727 19716 ft 475 kts 81°
2026-04-21 11:11 28.51387 -80.48976 20229 ft 481 kts 81°
2026-04-21 11:12 28.51801 -80.45189 20748 ft 485 kts 81°
2026-04-21 11:12 28.52221 -80.41364 21241 ft 490 kts 81°
2026-04-21 11:12 28.52643 -80.37496 21733 ft 495 kts 81°
2026-04-21 11:12 28.53067 -80.33592 22205 ft 500 kts 79°
2026-04-21 11:13 28.53812 -80.29741 22673 ft 499 kts 68°
2026-04-21 11:13 28.55201 -80.26129 23147 ft 498 kts 56°
2026-04-21 11:13 28.56979 -80.22743 23590 ft 501 kts 54°
2026-04-21 11:13 28.58813 -80.19355 24017 ft 504 kts 54°
2026-04-21 11:14 28.60664 -80.15949 24415 ft 508 kts 54°
2026-04-21 11:14 28.62506 -80.12506 24800 ft 511 kts 54°
2026-04-21 11:14 28.64352 -80.09032 25180 ft 514 kts 54°
2026-04-21 11:14 28.66218 -80.05548 25541 ft 517 kts 54°
2026-04-21 11:15 28.68100 -80.02046 25889 ft 520 kts 54°
2026-04-21 11:15 28.69963 -79.98562 26234 ft 523 kts 54°
2026-04-21 11:15 28.71856 -79.95007 26555 ft 527 kts 54°
2026-04-21 11:15 28.73763 -79.91430 26867 ft 530 kts 54°
2026-04-21 11:16 28.75683 -79.87834 27190 ft 533 kts 54°
2026-04-21 11:16 28.77612 -79.84215 27506 ft 536 kts 54°
2026-04-21 11:16 28.79549 -79.80573 27810 ft 539 kts 54°
2026-04-21 11:16 28.81495 -79.76909 28106 ft 542 kts 54°
2026-04-21 11:17 28.83453 -79.73225 28427 ft 545 kts 54°
2026-04-21 11:17 28.85421 -79.69518 28724 ft 548 kts 54°
2026-04-21 11:17 28.87399 -79.65789 29008 ft 551 kts 54°
2026-04-21 11:17 28.89383 -79.62043 29314 ft 553 kts 54°
2026-04-21 11:18 28.91371 -79.58285 29791 ft 553 kts 54°
2026-04-21 11:18 28.93358 -79.54526 30254 ft 553 kts 54°
2026-04-21 11:18 28.95343 -79.50770 30648 ft 553 kts 53°
2026-04-21 11:18 28.97327 -79.47012 31065 ft 552 kts 53°
2026-04-21 11:19 28.99303 -79.43263 31487 ft 550 kts 53°
2026-04-21 11:19 29.01271 -79.39528 31910 ft 548 kts 53°
2026-04-21 11:19 29.03234 -79.35800 32331 ft 547 kts 53°
2026-04-21 11:19 29.05192 -79.32078 32741 ft 545 kts 53°
2026-04-21 11:20 29.07142 -79.28366 33150 ft 544 kts 53°
2026-04-21 11:20 29.09083 -79.24669 33568 ft 542 kts 52°
2026-04-21 11:20 29.11020 -79.20977 33969 ft 540 kts 52°
2026-04-21 11:20 29.11672 -79.19733 34107 ft 540 kts 52°
2026-04-21 11:21 29.16593 -79.10337 34811 ft 540 kts 52°
2026-04-21 11:21 29.18524 -79.06643 35032 ft 542 kts 52°
2026-04-21 11:21 29.20462 -79.02931 35222 ft 544 kts 52°
2026-04-21 11:22 29.24360 -78.95459 35284 ft 547 kts 52°
2026-04-21 11:22 29.28243 -78.87993 35287 ft 545 kts 52°
2026-04-21 11:23 29.30185 -78.84262 35287 ft 545 kts 52°